contact:dominique.lefevre@mio.osupytheas.fr, maurice.libes@osupytheas.fr, didier.mallarino@osupytheas.fr
Project:EMSO http://www.emso-fr.org/EMSO-France
Depth: 2436.0 m
Title:EMSO Ligure Ouest : Data MII capteur AQUADOPP
Date,Latitude,Longitude,X_East,Y_North,Z_Up,Amplitude_X,Amplitude_Y,Amplitude_Z,Batterie,SoundSpeed,Heading,Pitch,Roll,Pressure,TIS,Speed,Direction
, degrees North, degrees East, m.s-1, m.s-1,m.s-1, 1, 1, 1, Volt, m.s-1, degree, degree, degree, dbar, degree_C, m.s-1, degree
2022-04-18T00:04:03,42.805,6.029,0.008,-0.026,0.0,102.0,102.0,102.0,13.4,1505.2,326.0,-0.7,1.8,2470.722,13.28,0.027,162.9
2022-04-18T00:07:03,42.805,6.029,0.0,-0.022,-0.033,104.0,102.0,102.0,13.3,1505.2,327.4,-0.8,1.8,2470.708,13.28,0.022,180.0
2022-04-18T00:10:03,42.805,6.029,0.03,-0.024,0.012,103.0,102.0,101.0,13.4,1505.2,324.4,-0.8,1.8,2470.72,13.28,0.038,128.7
2022-04-18T00:13:03,42.805,6.029,0.023,-0.047,-0.003,103.0,101.0,103.0,13.4,1505.2,328.3,-0.8,1.8,2470.672,13.28,0.052,153.9
2022-04-18T00:16:03,42.805,6.029,0.003,-0.017,-0.018,103.0,104.0,101.0,13.4,1505.2,325.5,-0.7,1.8,2470.715,13.28,0.017,170.0
2022-04-18T00:19:03,42.805,6.029,0.008,-0.031,-0.032,101.0,103.0,101.0,13.4,1505.2,332.3,-0.7,1.8,2470.709,13.28,0.032,165.5
2022-04-18T00:22:03,42.805,6.029,0.028,-0.026,-0.023,102.0,104.0,100.0,13.4,1505.2,331.9,-0.8,1.9,2470.704,13.28,0.038,132.9
2022-04-18T00:25:03,42.805,6.029,0.019,-0.028,0.008,104.0,102.0,101.0,13.3,1505.2,330.9,-0.8,1.8,2470.694,13.28,0.033,145.8
2022-04-18T00:28:03,42.805,6.029,0.006,-0.024,-0.042,102.0,102.0,103.0,13.4,1505.2,324.9,-0.8,1.8,2470.678,13.28,0.024,166.0
2022-04-18T00:31:03,42.805,6.029,0.02,-0.035,-0.03,103.0,103.0,101.0,13.4,1505.2,323.4,-0.8,1.8,2470.69,13.28,0.04,150.3
2022-04-18T00:34:03,42.805,6.029,0.039,-0.013,-0.006,103.0,101.0,102.0,13.4,1505.2,330.3,-0.7,1.8,2470.685,13.28,0.041,108.4
2022-04-18T00:37:03,42.805,6.029,0.015,-0.003,0.01,102.0,102.0,101.0,13.4,1505.2,322.5,-0.7,1.8,2470.668,13.28,0.015,101.3
2022-04-18T00:40:03,42.805,6.029,0.019,-0.045,-0.012,103.0,103.0,102.0,13.4,1505.2,328.6,-0.7,1.8,2470.679,13.28,0.048,157.1
2022-04-18T00:43:03,42.805,6.029,0.031,-0.002,-0.004,104.0,102.0,101.0,13.4,1505.2,322.5,-0.7,1.8,2470.643,13.28,0.031,93.7
2022-04-18T00:46:03,42.805,6.029,0.018,-0.031,-0.028,102.0,103.0,101.0,13.3,1505.2,330.7,-0.8,1.8,2470.689,13.28,0.035,149.9
2022-04-18T00:49:03,42.805,6.029,0.008,-0.031,-0.01,102.0,104.0,102.0,13.3,1505.2,326.0,-0.8,1.8,2470.669,13.28,0.032,165.5
2022-04-18T00:52:03,42.805,6.029,0.021,-0.022,0.007,104.0,102.0,102.0,13.4,1505.2,331.3,-0.8,1.8,2470.617,13.28,0.03,136.3
2022-04-18T00:55:03,42.805,6.029,0.027,-0.014,-0.001,102.0,104.0,102.0,13.3,1505.2,328.9,-0.8,1.8,2470.661,13.28,0.03,117.4
2022-04-18T00:58:03,42.805,6.029,0.017,-0.009,-0.016,104.0,102.0,101.0,13.3,1505.2,324.6,-0.8,1.8,2470.662,13.28,0.019,117.9
2022-04-18T01:04:03,42.805,6.029,0.018,-0.04,-0.054,104.0,103.0,102.0,13.3,1505.2,327.7,-0.7,1.8,2470.663,13.28,0.043,155.8
2022-04-18T01:07:03,42.805,6.029,0.02,-0.024,0.017,104.0,103.0,103.0,13.3,1505.2,323.6,-0.7,1.8,2470.685,13.28,0.031,140.2
2022-04-18T01:10:03,42.805,6.029,0.018,-0.032,-0.026,103.0,103.0,101.0,13.3,1505.2,324.5,-0.8,1.8,2470.649,13.28,0.036,150.6
2022-04-18T01:13:03,42.805,6.029,0.011,-0.021,-0.02,101.0,104.0,102.0,13.4,1505.2,327.9,-0.7,1.8,2470.678,13.28,0.023,152.4
2022-04-18T01:16:03,42.805,6.029,0.028,-0.036,-0.039,102.0,103.0,102.0,13.3,1505.2,327.7,-0.8,1.9,2470.592,13.28,0.045,142.1
2022-04-18T01:19:03,42.805,6.029,0.002,-0.03,-0.054,103.0,102.0,101.0,13.3,1505.2,328.7,-0.8,1.8,2470.608,13.28,0.03,176.2
2022-04-18T01:22:03,42.805,6.029,0.02,-0.025,0.012,104.0,102.0,101.0,13.3,1505.2,330.1,-0.8,1.8,2470.648,13.28,0.032,141.3
2022-04-18T01:25:03,42.805,6.029,0.016,-0.022,-0.035,103.0,103.0,101.0,13.4,1505.2,322.6,-0.7,1.8,2470.607,13.28,0.027,144.0
2022-04-18T01:28:03,42.805,6.029,0.014,-0.016,-0.005,103.0,102.0,101.0,13.3,1505.2,328.0,-0.7,1.8,2470.635,13.28,0.021,138.8
2022-04-18T01:31:03,42.805,6.029,0.038,-0.026,-0.003,104.0,103.0,102.0,13.3,1505.2,325.8,-0.8,1.8,2470.675,13.28,0.046,124.4
2022-04-18T01:34:03,42.805,6.029,0.033,-0.021,0.004,104.0,102.0,102.0,13.4,1505.2,325.2,-0.8,1.8,2470.642,13.28,0.039,122.5
2022-04-18T01:37:03,42.805,6.029,0.022,-0.029,0.007,103.0,102.0,101.0,13.4,1505.2,329.5,-0.8,1.8,2470.648,13.28,0.036,142.8
2022-04-18T01:40:03,42.805,6.029,0.034,-0.023,-0.013,103.0,103.0,102.0,13.3,1505.2,323.0,-0.8,1.8,2470.615,13.28,0.041,124.1
2022-04-18T01:43:03,42.805,6.029,0.023,-0.058,-0.01,102.0,103.0,101.0,13.4,1505.2,329.6,-0.8,1.8,2470.612,13.28,0.062,158.4
2022-04-18T01:46:03,42.805,6.029,0.016,-0.049,-0.013,103.0,101.0,102.0,13.3,1505.2,330.0,-0.7,1.8,2470.605,13.28,0.051,161.9
2022-04-18T01:49:03,42.805,6.029,0.006,-0.029,0.001,103.0,103.0,102.0,13.3,1505.2,328.1,-0.8,1.8,2470.628,13.28,0.029,168.3
2022-04-18T01:52:03,42.805,6.029,0.024,-0.041,-0.021,103.0,103.0,101.0,13.4,1505.2,330.4,-0.7,1.8,2470.631,13.28,0.047,149.7
2022-04-18T01:55:03,42.805,6.029,0.017,-0.046,-0.018,102.0,102.0,102.0,13.3,1505.2,325.4,-0.8,1.8,2470.593,13.28,0.049,159.7
2022-04-18T01:58:03,42.805,6.029,0.017,-0.025,-0.03,103.0,103.0,102.0,13.4,1505.2,329.0,-0.8,1.8,2470.64,13.28,0.03,145.8
2022-04-18T02:04:04,42.805,6.029,0.01,-0.033,-0.01,102.0,103.0,100.0,13.4,1505.2,331.1,-0.8,1.8,2470.647,13.28,0.034,163.1
2022-04-18T02:07:03,42.805,6.029,0.006,-0.035,-0.03,102.0,102.0,102.0,13.3,1505.2,328.7,-0.8,1.8,2470.69,13.28,0.035,170.3
2022-04-18T02:10:03,42.805,6.029,0.035,-0.022,-0.02,103.0,102.0,101.0,13.4,1505.2,330.9,-0.7,1.8,2470.654,13.28,0.041,122.2
2022-04-18T02:13:03,42.805,6.029,0.037,-0.039,-0.025,102.0,103.0,101.0,13.4,1505.2,322.0,-0.7,1.8,2470.62,13.28,0.053,136.5
2022-04-18T02:16:03,42.805,6.029,0.038,-0.03,0.009,104.0,101.0,101.0,13.4,1505.2,329.3,-0.7,1.8,2470.596,13.28,0.048,128.3
2022-04-18T02:19:03,42.805,6.029,0.024,-0.016,0.015,104.0,102.0,101.0,13.4,1505.2,330.8,-0.8,1.8,2470.614,13.28,0.028,123.7
2022-04-18T02:22:03,42.805,6.029,0.016,-0.019,-0.007,103.0,102.0,102.0,13.4,1505.2,332.2,-0.7,1.8,2470.605,13.28,0.024,139.9
2022-04-18T02:25:03,42.805,6.029,0.023,-0.041,-0.037,103.0,103.0,102.0,13.4,1505.2,323.5,-0.7,1.8,2470.62,13.28,0.047,150.7
2022-04-18T02:28:03,42.805,6.029,0.016,-0.035,-0.024,102.0,102.0,101.0,13.4,1505.2,329.5,-0.8,1.8,2470.59,13.28,0.038,155.4
2022-04-18T02:31:03,42.805,6.029,0.03,-0.028,-0.032,102.0,101.0,100.0,13.4,1505.2,329.6,-0.8,1.8,2470.601,13.28,0.041,133.0
2022-04-18T02:34:03,42.805,6.029,0.04,-0.025,-0.012,102.0,102.0,101.0,13.4,1505.2,331.9,-0.8,1.8,2470.628,13.28,0.047,122.0
2022-04-18T02:37:03,42.805,6.029,0.021,-0.01,-0.022,105.0,102.0,101.0,13.4,1505.2,325.8,-0.7,1.8,2470.598,13.28,0.023,115.5
2022-04-18T02:40:03,42.805,6.029,0.025,-0.03,-0.01,103.0,101.0,100.0,13.3,1505.2,321.9,-0.8,1.8,2470.627,13.28,0.039,140.2
2022-04-18T02:43:03,42.805,6.029,0.019,-0.032,-0.036,103.0,102.0,101.0,13.4,1505.2,324.4,-0.7,1.8,2470.62,13.28,0.037,149.3
2022-04-18T02:46:03,42.805,6.029,0.035,-0.036,-0.014,103.0,103.0,100.0,13.4,1505.2,329.6,-0.8,1.8,2470.603,13.28,0.05,135.8
2022-04-18T02:49:03,42.805,6.029,0.029,-0.019,-0.011,103.0,103.0,101.0,13.4,1505.2,322.8,-0.8,1.8,2470.601,13.28,0.034,123.2
2022-04-18T02:52:03,42.805,6.029,0.02,-0.026,-0.01,102.0,103.0,101.0,13.4,1505.2,327.9,-0.8,1.8,2470.606,13.28,0.032,142.4
2022-04-18T02:55:03,42.805,6.029,0.059,-0.016,-0.014,102.0,102.0,101.0,13.3,1505.2,325.8,-0.7,1.8,2470.583,13.28,0.061,105.2
2022-04-18T02:58:03,42.805,6.029,0.05,-0.033,-0.036,102.0,103.0,101.0,13.3,1505.2,323.1,-0.8,1.8,2470.625,13.28,0.059,123.4
2022-04-18T03:04:03,42.805,6.029,0.043,-0.04,-0.002,103.0,103.0,101.0,13.3,1505.2,332.1,-0.8,1.8,2470.649,13.28,0.058,132.9
2022-04-18T03:07:03,42.805,6.029,0.026,-0.04,-0.026,102.0,102.0,102.0,13.3,1505.2,330.3,-0.8,1.9,2470.6,13.28,0.047,147.0
2022-04-18T03:10:03,42.805,6.029,0.047,-0.057,0.001,102.0,102.0,102.0,13.4,1505.2,323.6,-0.7,1.8,2470.626,13.28,0.073,140.5
2022-04-18T03:13:03,42.805,6.029,0.043,-0.028,-0.02,102.0,103.0,102.0,13.3,1505.2,328.2,-0.8,1.9,2470.623,13.28,0.051,123.1
2022-04-18T03:16:03,42.805,6.029,0.053,-0.039,-0.027,102.0,104.0,102.0,13.4,1505.2,323.5,-0.8,1.8,2470.622,13.28,0.065,126.3
2022-04-18T03:19:03,42.805,6.029,0.036,-0.011,0.011,103.0,102.0,102.0,13.4,1505.2,327.6,-0.8,1.8,2470.644,13.28,0.037,107.0
2022-04-18T03:22:03,42.805,6.029,0.053,-0.033,-0.018,102.0,103.0,101.0,13.3,1505.2,326.8,-0.8,1.8,2470.672,13.28,0.062,121.9
2022-04-18T03:25:03,42.805,6.029,0.023,-0.04,-0.042,103.0,103.0,101.0,13.4,1505.2,326.6,-0.8,1.8,2470.65,13.28,0.046,150.1
2022-04-18T03:28:04,42.805,6.029,0.037,-0.034,-0.021,104.0,102.0,101.0,13.3,1505.2,331.1,-0.8,1.8,2470.617,13.28,0.05,132.6
2022-04-18T03:31:03,42.805,6.029,0.046,-0.028,-0.022,103.0,103.0,101.0,13.4,1505.2,322.5,-0.7,1.8,2470.634,13.28,0.053,121.3
2022-04-18T03:34:03,42.805,6.029,0.012,-0.026,-0.011,104.0,103.0,101.0,13.3,1505.2,323.8,-0.7,1.8,2470.596,13.28,0.028,155.2
2022-04-18T03:37:03,42.805,6.029,0.052,-0.03,-0.016,103.0,103.0,102.0,13.4,1505.2,324.4,-0.8,1.8,2470.657,13.28,0.06,120.0
2022-04-18T03:40:03,42.805,6.029,0.028,-0.033,-0.001,104.0,103.0,102.0,13.3,1505.2,324.2,-0.8,1.8,2470.613,13.28,0.043,139.7
2022-04-18T03:43:03,42.805,6.029,0.03,-0.042,-0.04,103.0,106.0,102.0,13.4,1505.2,326.9,-0.8,1.8,2470.601,13.28,0.051,144.5
2022-04-18T03:46:03,42.805,6.029,0.038,-0.05,-0.022,103.0,104.0,101.0,13.4,1505.2,323.7,-0.7,1.8,2470.616,13.28,0.062,142.8
2022-04-18T03:49:03,42.805,6.029,0.008,-0.048,0.0,103.0,102.0,101.0,13.4,1505.2,330.2,-0.8,1.8,2470.598,13.28,0.048,170.5
2022-04-18T03:52:03,42.805,6.029,0.027,-0.048,-0.026,103.0,103.0,102.0,13.4,1505.2,328.3,-0.7,1.8,2470.562,13.28,0.055,150.6
2022-04-18T03:55:03,42.805,6.029,0.033,-0.042,-0.033,103.0,102.0,101.0,13.3,1505.2,324.4,-0.8,1.8,2470.638,13.28,0.053,141.8
2022-04-18T03:58:03,42.805,6.029,0.037,-0.018,-0.016,103.0,103.0,101.0,13.4,1505.2,325.3,-0.8,1.9,2470.602,13.28,0.041,115.9
2022-04-18T04:04:03,42.805,6.029,0.019,-0.047,-0.032,103.0,104.0,102.0,13.3,1505.2,327.6,-0.8,1.8,2470.605,13.28,0.05,158.0
2022-04-18T04:07:03,42.805,6.029,-0.003,-0.033,-0.025,102.0,103.0,102.0,13.3,1505.2,324.0,-0.8,1.8,2470.623,13.28,0.033,185.2
2022-04-18T04:10:03,42.805,6.029,0.003,-0.03,-0.011,102.0,103.0,103.0,13.4,1505.2,332.7,-0.7,1.8,2470.621,13.28,0.03,174.3
2022-04-18T04:13:03,42.805,6.029,0.028,-0.022,-0.001,102.0,103.0,102.0,13.3,1505.2,328.4,-0.8,1.8,2470.653,13.28,0.035,128.2
2022-04-18T04:16:03,42.805,6.029,0.043,-0.053,-0.046,103.0,103.0,101.0,13.4,1505.2,330.1,-0.7,1.8,2470.577,13.28,0.068,140.9
2022-04-18T04:19:03,42.805,6.029,0.0,-0.033,-0.008,104.0,103.0,102.0,13.4,1505.2,330.1,-0.7,1.8,2470.618,13.28,0.033,180.0
2022-04-18T04:22:03,42.805,6.029,0.03,-0.047,0.002,103.0,105.0,101.0,13.4,1505.2,332.9,-0.8,1.8,2470.612,13.28,0.055,147.4
2022-04-18T04:25:03,42.805,6.029,0.011,-0.025,-0.01,103.0,103.0,102.0,13.3,1505.2,326.8,-0.8,1.8,2470.6,13.28,0.027,156.3
2022-04-18T04:28:03,42.805,6.029,0.004,-0.017,-0.017,104.0,104.0,102.0,13.3,1505.2,328.1,-0.7,1.8,2470.577,13.28,0.017,166.8
2022-04-18T04:31:03,42.805,6.029,0.039,-0.046,0.002,104.0,103.0,102.0,13.4,1505.2,322.0,-0.7,1.9,2470.552,13.28,0.06,139.7
2022-04-18T04:34:03,42.805,6.029,0.007,-0.045,-0.034,103.0,104.0,102.0,13.4,1505.2,331.4,-0.8,1.8,2470.63,13.28,0.045,171.2
2022-04-18T04:37:03,42.805,6.029,0.026,-0.036,0.023,105.0,104.0,101.0,13.3,1505.2,324.1,-0.8,1.8,2470.59,13.28,0.044,144.2
2022-04-18T04:40:03,42.805,6.029,0.037,-0.025,-0.029,104.0,103.0,102.0,13.3,1505.2,323.6,-0.8,1.8,2470.56,13.28,0.044,124.0
2022-04-18T04:43:03,42.805,6.029,-0.017,-0.027,-0.035,105.0,104.0,103.0,13.4,1505.2,326.3,-0.8,1.8,2470.602,13.28,0.031,212.2
2022-04-18T04:46:03,42.805,6.029,0.005,-0.032,-0.003,104.0,103.0,102.0,13.4,1505.2,328.3,-0.7,1.8,2470.629,13.28,0.032,171.1
2022-04-18T04:49:03,42.805,6.029,0.023,-0.032,-0.018,106.0,104.0,102.0,13.3,1505.2,322.0,-0.7,1.8,2470.606,13.28,0.039,144.3
2022-04-18T04:52:03,42.805,6.029,0.001,-0.038,-0.008,105.0,104.0,102.0,13.4,1505.2,328.7,-0.8,1.8,2470.609,13.28,0.038,178.5
2022-04-18T04:55:03,42.805,6.029,-0.005,-0.029,-0.035,102.0,105.0,103.0,13.3,1505.2,330.8,-0.7,1.8,2470.596,13.28,0.029,189.8
2022-04-18T04:58:03,42.805,6.029,0.011,-0.034,-0.024,104.0,106.0,102.0,13.4,1505.2,333.6,-0.8,1.8,2470.593,13.28,0.035,162.1
2022-04-18T05:04:04,42.805,6.029,0.011,-0.039,-0.031,104.0,104.0,101.0,13.4,1505.2,326.5,-0.8,1.8,2470.623,13.28,0.04,164.3
2022-04-18T05:07:03,42.805,6.029,0.012,-0.046,-0.012,104.0,104.0,102.0,13.4,1505.2,332.3,-0.8,1.8,2470.642,13.28,0.047,165.4
2022-04-18T05:10:03,42.805,6.029,0.008,-0.021,-0.033,103.0,103.0,102.0,13.4,1505.2,327.5,-0.7,1.8,2470.606,13.28,0.022,159.1
2022-04-18T05:13:05,42.805,6.029,0.016,-0.016,-0.036,105.0,105.0,102.0,13.4,1505.2,323.1,-0.7,1.8,2470.603,13.28,0.022,135.0
2022-04-18T05:16:03,42.805,6.029,0.006,-0.035,-0.016,105.0,104.0,102.0,13.4,1505.2,328.8,-0.8,1.8,2470.651,13.28,0.035,170.3
2022-04-18T05:19:03,42.805,6.029,0.015,-0.032,-0.015,106.0,103.0,102.0,13.3,1505.2,326.8,-0.8,1.8,2470.635,13.28,0.035,154.9
2022-04-18T05:22:03,42.805,6.029,0.014,-0.047,-0.029,104.0,103.0,101.0,13.4,1505.2,331.5,-0.7,1.8,2470.619,13.28,0.049,163.4
2022-04-18T05:25:03,42.805,6.029,0.005,-0.037,-0.027,104.0,104.0,101.0,13.4,1505.2,327.1,-0.7,1.8,2470.663,13.28,0.037,172.3
2022-04-18T05:28:03,42.805,6.029,0.002,-0.015,-0.009,104.0,104.0,102.0,13.4,1505.2,331.6,-0.7,1.8,2470.623,13.28,0.015,172.4
2022-04-18T05:31:03,42.805,6.029,0.01,-0.042,-0.02,104.0,104.0,102.0,13.4,1505.2,329.7,-0.8,1.8,2470.651,13.28,0.043,166.6
2022-04-18T05:34:03,42.805,6.029,0.0,-0.046,-0.043,105.0,103.0,103.0,13.4,1505.2,326.1,-0.8,1.8,2470.633,13.28,0.046,180.0
2022-04-18T05:37:03,42.805,6.029,0.004,-0.033,-0.013,105.0,104.0,101.0,13.3,1505.2,331.1,-0.8,1.8,2470.66,13.28,0.033,173.1
2022-04-18T05:40:03,42.805,6.029,0.005,-0.034,-0.036,105.0,103.0,101.0,13.4,1505.2,328.3,-0.7,1.8,2470.653,13.28,0.034,171.6
2022-04-18T05:43:03,42.805,6.029,0.004,-0.035,-0.022,104.0,103.0,101.0,13.3,1505.2,327.9,-0.8,1.8,2470.628,13.28,0.035,173.5
2022-04-18T05:46:03,42.805,6.029,0.004,-0.008,-0.011,105.0,103.0,103.0,13.3,1505.2,322.3,-0.8,1.8,2470.629,13.28,0.008,153.4
2022-04-18T05:49:03,42.805,6.029,0.014,-0.029,-0.03,104.0,104.0,102.0,13.4,1505.2,325.1,-0.7,1.8,2470.639,13.28,0.032,154.2
2022-04-18T05:52:03,42.805,6.029,-0.02,-0.039,-0.01,104.0,104.0,102.0,13.4,1505.2,328.5,-0.8,1.8,2470.625,13.28,0.043,207.1
2022-04-18T05:55:03,42.805,6.029,0.024,-0.037,-0.016,105.0,103.0,102.0,13.3,1505.2,322.8,-0.7,1.8,2470.616,13.28,0.044,147.0
2022-04-18T05:58:03,42.805,6.029,0.015,-0.02,-0.005,104.0,104.0,102.0,13.4,1505.2,327.8,-0.8,1.9,2470.618,13.28,0.025,143.1
2022-04-18T06:04:03,42.805,6.029,0.005,-0.044,-0.003,105.0,104.0,102.0,13.4,1505.2,332.5,-0.8,1.8,2470.645,13.28,0.044,173.5
2022-04-18T06:07:03,42.805,6.029,0.008,-0.046,0.011,104.0,105.0,103.0,13.3,1505.2,332.3,-0.8,1.8,2470.651,13.28,0.046,170.1
2022-04-18T06:10:03,42.805,6.029,0.017,-0.035,-0.007,105.0,103.0,103.0,13.3,1505.2,329.8,-0.8,1.8,2470.627,13.28,0.038,154.1
2022-04-18T06:13:03,42.805,6.029,0.011,-0.045,-0.008,103.0,104.0,102.0,13.4,1505.2,330.8,-0.7,1.8,2470.656,13.28,0.046,166.3
2022-04-18T06:16:03,42.805,6.029,0.009,-0.039,-0.025,105.0,104.0,102.0,13.4,1505.2,326.5,-0.7,1.8,2470.636,13.28,0.04,167.0
2022-04-18T06:19:03,42.805,6.029,0.014,-0.034,-0.005,105.0,103.0,103.0,13.3,1505.2,324.9,-0.8,1.8,2470.62,13.28,0.036,157.6
2022-04-18T06:22:03,42.805,6.029,0.011,-0.007,0.01,106.0,103.0,102.0,13.3,1505.2,328.3,-0.7,1.8,2470.626,13.28,0.013,122.5
2022-04-18T06:25:03,42.805,6.029,0.0,-0.053,0.001,104.0,105.0,103.0,13.4,1505.2,327.0,-0.8,1.8,2470.66,13.28,0.053,180.0
2022-04-18T06:28:03,42.805,6.029,0.002,-0.026,-0.018,105.0,103.0,103.0,13.4,1505.2,322.7,-0.8,1.8,2470.667,13.28,0.026,175.6
2022-04-18T06:31:03,42.805,6.029,0.015,-0.03,-0.013,106.0,106.0,102.0,13.4,1505.2,325.2,-0.8,1.8,2470.628,13.28,0.033,153.4
2022-04-18T06:34:03,42.805,6.029,0.014,-0.036,0.015,105.0,104.0,102.0,13.4,1505.2,332.6,-0.7,1.8,2470.672,13.28,0.038,158.8
2022-04-18T06:37:03,42.805,6.029,0.007,-0.037,-0.02,104.0,103.0,102.0,13.4,1505.2,329.3,-0.7,1.8,2470.644,13.28,0.037,169.3
2022-04-18T06:40:03,42.805,6.029,0.035,-0.054,-0.027,105.0,104.0,102.0,13.3,1505.2,321.6,-0.8,1.8,2470.657,13.28,0.064,147.0
2022-04-18T06:43:05,42.805,6.029,0.009,-0.04,-0.032,105.0,105.0,102.0,13.3,1505.2,330.7,-0.7,1.8,2470.686,13.28,0.041,167.3
2022-04-18T06:46:03,42.805,6.029,-0.004,-0.03,-0.026,105.0,104.0,103.0,13.3,1505.2,326.0,-0.8,1.8,2470.695,13.28,0.03,187.6
2022-04-18T06:49:03,42.805,6.029,0.031,-0.038,0.001,105.0,104.0,102.0,13.4,1505.2,325.2,-0.8,1.8,2470.666,13.28,0.049,140.8
2022-04-18T06:52:03,42.805,6.029,0.013,-0.022,-0.026,105.0,105.0,102.0,13.4,1505.2,325.7,-0.7,1.9,2470.644,13.28,0.025,149.4
2022-04-18T06:55:03,42.805,6.029,0.003,-0.047,-0.019,106.0,104.0,103.0,13.4,1505.2,322.3,-0.8,1.8,2470.686,13.28,0.047,176.4
2022-04-18T06:58:03,42.805,6.029,0.012,-0.025,-0.03,106.0,105.0,102.0,13.4,1505.2,326.7,-0.7,1.8,2470.703,13.28,0.027,154.4
2022-04-18T07:04:03,42.805,6.029,0.013,-0.036,-0.022,105.0,104.0,104.0,13.4,1505.2,331.9,-0.8,1.8,2470.727,13.28,0.038,160.1
2022-04-18T07:07:03,42.805,6.029,-0.002,-0.027,-0.021,105.0,104.0,103.0,13.4,1505.2,331.5,-0.8,1.8,2470.736,13.28,0.027,184.2
2022-04-18T07:10:03,42.805,6.029,-0.019,-0.044,-0.013,104.0,104.0,103.0,13.4,1505.2,330.6,-0.7,1.8,2470.742,13.28,0.047,203.4
2022-04-18T07:13:03,42.805,6.029,-0.011,-0.043,-0.036,105.0,103.0,102.0,13.4,1505.2,332.6,-0.8,1.8,2470.731,13.28,0.044,194.3
2022-04-18T07:16:03,42.805,6.029,0.012,-0.052,-0.029,105.0,106.0,102.0,13.4,1505.2,324.8,-0.8,1.8,2470.73,13.28,0.053,167.0
2022-04-18T07:19:03,42.805,6.029,-0.019,-0.026,-0.011,104.0,103.0,102.0,13.4,1505.2,326.7,-0.8,1.8,2470.718,13.28,0.032,216.2
2022-04-18T07:22:03,42.805,6.029,0.013,-0.043,-0.052,105.0,104.0,102.0,13.4,1505.2,323.6,-0.7,1.8,2470.712,13.28,0.044,163.2
2022-04-18T07:25:03,42.805,6.029,-0.003,-0.042,-0.039,105.0,104.0,103.0,13.4,1505.2,323.0,-0.8,1.8,2470.726,13.28,0.042,184.1
2022-04-18T07:28:03,42.805,6.029,-0.022,-0.026,-0.032,104.0,103.0,103.0,13.4,1505.2,326.1,-0.7,1.8,2470.733,13.28,0.034,220.2
2022-04-18T07:31:03,42.805,6.029,-0.007,-0.047,-0.033,106.0,103.0,101.0,13.3,1505.2,329.1,-0.7,1.8,2470.739,13.28,0.047,188.5
2022-04-18T07:34:03,42.805,6.029,-0.011,-0.022,-0.018,102.0,105.0,103.0,13.4,1505.2,323.4,-0.8,1.8,2470.687,13.28,0.024,206.6
2022-04-18T07:37:03,42.805,6.029,-0.001,-0.045,-0.026,104.0,104.0,103.0,13.4,1505.2,327.0,-0.7,1.9,2470.745,13.28,0.045,181.3
2022-04-18T07:40:03,42.805,6.029,0.004,-0.053,0.012,104.0,102.0,103.0,13.4,1505.2,331.9,-0.8,1.8,2470.751,13.28,0.053,175.7
2022-04-18T07:43:03,42.805,6.029,0.012,-0.01,0.012,104.0,104.0,102.0,13.3,1505.2,323.6,-0.8,1.8,2470.712,13.28,0.015,129.8
2022-04-18T07:46:03,42.805,6.029,-0.008,-0.039,0.011,106.0,104.0,102.0,13.4,1505.2,324.2,-0.7,1.8,2470.724,13.28,0.039,191.6
2022-04-18T07:49:03,42.805,6.029,-0.014,-0.037,-0.013,106.0,105.0,103.0,13.4,1505.2,332.3,-0.8,1.8,2470.726,13.28,0.039,200.7
2022-04-18T07:52:03,42.805,6.029,0.006,-0.032,-0.028,104.0,104.0,102.0,13.4,1505.2,326.6,-0.8,1.8,2470.786,13.28,0.032,169.4
2022-04-18T07:55:03,42.805,6.029,0.012,-0.018,-0.028,105.0,103.0,102.0,13.4,1505.2,322.2,-0.7,1.8,2470.761,13.28,0.021,146.3
2022-04-18T07:58:04,42.805,6.029,0.014,-0.037,0.009,103.0,105.0,103.0,13.4,1505.2,326.7,-0.8,1.8,2470.775,13.28,0.039,159.3
2022-04-18T08:04:03,42.805,6.029,-0.009,-0.029,-0.02,105.0,105.0,103.0,13.4,1505.2,324.9,-0.7,1.8,2470.804,13.28,0.03,197.2
2022-04-18T08:07:03,42.805,6.029,0.014,-0.024,-0.003,104.0,104.0,102.0,13.4,1505.2,325.2,-0.8,1.8,2470.802,13.28,0.027,149.7
2022-04-18T08:10:03,42.805,6.029,0.013,-0.029,-0.007,105.0,105.0,102.0,13.4,1505.2,324.5,-0.7,1.8,2470.788,13.28,0.031,155.9
2022-04-18T08:13:03,42.805,6.029,0.004,-0.019,-0.018,105.0,105.0,102.0,13.4,1505.2,326.5,-0.7,1.8,2470.768,13.28,0.019,168.1
2022-04-18T08:16:03,42.805,6.029,0.013,-0.028,-0.044,105.0,104.0,102.0,13.4,1505.2,324.8,-0.8,1.8,2470.797,13.28,0.03,155.1
2022-04-18T08:19:03,42.805,6.029,0.0,-0.031,-0.004,105.0,103.0,102.0,13.4,1505.2,330.8,-0.7,1.8,2470.771,13.28,0.03,180.0
2022-04-18T08:22:03,42.805,6.029,0.014,-0.036,0.005,105.0,103.0,103.0,13.4,1505.2,328.8,-0.8,1.8,2470.808,13.28,0.038,158.8
2022-04-18T08:25:03,42.805,6.029,0.008,-0.029,-0.035,104.0,106.0,103.0,13.4,1505.2,324.3,-0.7,1.8,2470.792,13.28,0.03,164.6
2022-04-18T08:28:03,42.805,6.029,0.007,-0.026,-0.018,105.0,104.0,103.0,13.4,1505.2,325.0,-0.8,1.8,2470.78,13.28,0.026,164.9
2022-04-18T08:31:03,42.805,6.029,0.016,-0.036,0.004,104.0,104.0,102.0,13.3,1505.2,325.5,-0.8,1.8,2470.775,13.28,0.039,156.0
2022-04-18T08:34:03,42.805,6.029,0.008,-0.05,-0.04,104.0,104.0,103.0,13.4,1505.2,330.0,-0.8,1.8,2470.814,13.28,0.05,170.9
2022-04-18T08:37:03,42.805,6.029,0.003,-0.026,-0.02,107.0,104.0,103.0,13.4,1505.2,326.0,-0.7,1.8,2470.777,13.28,0.026,173.4
2022-04-18T08:40:03,42.805,6.029,0.018,-0.038,-0.036,104.0,106.0,101.0,13.4,1505.2,326.8,-0.8,1.8,2470.795,13.28,0.042,154.7
2022-04-18T08:43:03,42.805,6.029,0.017,-0.035,0.017,104.0,104.0,102.0,13.3,1505.2,327.4,-0.7,1.8,2470.802,13.28,0.038,154.1
2022-04-18T08:46:03,42.805,6.029,0.008,-0.03,-0.051,104.0,105.0,101.0,13.4,1505.2,324.8,-0.8,1.8,2470.768,13.28,0.031,165.1
2022-04-18T08:49:03,42.805,6.029,0.013,-0.045,-0.026,104.0,104.0,102.0,13.4,1505.2,326.4,-0.8,1.8,2470.8,13.28,0.046,163.9
2022-04-18T08:52:03,42.805,6.029,0.028,-0.05,0.001,103.0,105.0,102.0,13.3,1505.2,328.1,-0.7,1.8,2470.787,13.28,0.057,150.7
2022-04-18T08:55:03,42.805,6.029,0.014,-0.026,0.0,104.0,104.0,102.0,13.4,1505.2,322.7,-0.7,1.8,2470.792,13.28,0.029,151.7
2022-04-18T08:58:03,42.805,6.029,0.003,-0.019,-0.001,105.0,103.0,102.0,13.3,1505.2,330.1,-0.7,1.8,2470.791,13.28,0.019,171.0
2022-04-18T09:04:03,42.805,6.029,0.024,-0.041,0.002,104.0,104.0,103.0,13.3,1505.2,324.3,-0.7,1.8,2470.877,13.28,0.047,149.7
2022-04-18T09:07:03,42.805,6.029,0.01,-0.017,-0.024,105.0,105.0,103.0,13.4,1505.2,329.6,-0.8,1.8,2470.812,13.28,0.019,149.5
2022-04-18T09:10:03,42.805,6.029,0.017,-0.025,-0.015,105.0,104.0,102.0,13.3,1505.2,329.5,-0.8,1.8,2470.816,13.28,0.03,145.8
2022-04-18T09:13:03,42.805,6.029,0.027,-0.043,-0.012,104.0,103.0,103.0,13.4,1505.2,326.8,-0.7,1.8,2470.83,13.28,0.05,147.9
2022-04-18T09:16:03,42.805,6.029,0.008,-0.043,-0.007,104.0,103.0,102.0,13.4,1505.2,328.8,-0.8,1.9,2470.812,13.28,0.043,169.5
2022-04-18T09:19:03,42.805,6.029,-0.007,-0.033,-0.029,104.0,104.0,103.0,13.4,1505.2,321.8,-0.7,1.8,2470.821,13.28,0.033,192.0
2022-04-18T09:22:03,42.805,6.029,0.002,-0.028,-0.031,106.0,104.0,103.0,13.3,1505.2,330.0,-0.8,1.8,2470.805,13.28,0.028,175.9
2022-04-18T09:25:03,42.805,6.029,0.017,-0.046,-0.028,104.0,103.0,102.0,13.4,1505.2,324.8,-0.7,1.8,2470.817,13.28,0.049,159.7
2022-04-18T09:28:03,42.805,6.029,0.007,-0.024,-0.005,106.0,105.0,102.0,13.4,1505.2,321.9,-0.8,1.8,2470.814,13.28,0.025,163.7
2022-04-18T09:31:03,42.805,6.029,0.0,-0.046,-0.041,104.0,104.0,103.0,13.4,1505.2,327.1,-0.8,1.8,2470.792,13.28,0.046,180.0
2022-04-18T09:34:03,42.805,6.029,-0.014,-0.03,-0.019,104.0,104.0,102.0,13.4,1505.2,327.4,-0.8,1.9,2470.845,13.28,0.033,205.0
2022-04-18T09:37:03,42.805,6.029,0.016,-0.018,-0.009,105.0,104.0,103.0,13.3,1505.2,328.2,-0.8,1.9,2470.817,13.28,0.024,138.4
2022-04-18T09:40:03,42.805,6.029,0.025,-0.044,0.009,104.0,103.0,103.0,13.3,1505.2,333.0,-0.8,1.8,2470.801,13.28,0.05,150.4
2022-04-18T09:43:03,42.805,6.029,0.005,-0.034,-0.033,104.0,105.0,102.0,13.4,1505.2,322.7,-0.7,1.8,2470.782,13.28,0.034,171.6
2022-04-18T09:46:03,42.805,6.029,0.0,-0.044,-0.024,104.0,105.0,102.0,13.4,1505.2,328.8,-0.7,1.8,2470.832,13.28,0.044,180.0
2022-04-18T09:49:03,42.805,6.029,0.018,-0.007,-0.002,106.0,104.0,102.0,13.4,1505.2,329.8,-0.8,1.8,2470.798,13.28,0.019,111.2
2022-04-18T09:52:03,42.805,6.029,-0.029,-0.025,-0.018,106.0,103.0,102.0,13.3,1505.2,324.5,-0.7,1.8,2470.811,13.28,0.038,229.2
2022-04-18T09:55:03,42.805,6.029,0.013,-0.043,-0.06,106.0,104.0,102.0,13.3,1505.2,327.5,-0.7,1.8,2470.787,13.28,0.044,163.2